Location: Franzen
(48.6167°N, 15.3833°E)
Time: 17:32:38
(UTC+00:00)

Cosmos 968 Rocket - Visible Passes

Search period start: 26 July 2021 00:00
Search period end: 05 August 2021 00:00
Orbit: 741 x 770 km, 74.0° (Epoch: 26 July)

Date Brightness Start Highest point End Pass type
(mag) Time Alt. Az. Time Alt. Az. Time Alt. Az.
30 Jul 5.8 02:33:42 10° SE 02:37:28 21° E 02:41:16 10° NE visible
31 Jul 6.2 01:55:21 10° ESE 01:57:08 12° E 01:58:54 10° ENE visible
01 Aug 4.5 02:52:29 10° S 02:57:20 47° ESE 03:02:16 10° NNE visible
02 Aug 5.3 02:12:34 10° SSE 02:16:49 27° E 02:21:06 10° NE visible
03 Aug 5.9 01:33:28 10° SE 01:36:24 16° E 01:39:22 10° ENE visible
04 Aug 3.9 02:31:45 10° S 02:36:46 61° ESE 02:41:52 10° NNE visible
